H1 CPF 2 NER 2025 9 29 9 272 01 glonass131 H2 1301901 9131 39155 2025 9 29 0 0 0 2025 10 2 23 45 0 900 1 1 0 0 0 1 H9 10 0 60947 0.00000 0 7211330.279 24497412.825 -736480.035 10 0 60947 900.00000 0 7359171.602 24342913.884 2484665.229 10 0 60947 1800.00000 0 7351261.897 23812849.816 5657795.206 10 0 60947 2700.00000 0 7140507.506 22938981.096 8721631.102 10 0 60947 3600.00000 0 6687734.326 21763854.025 11617045.390 10 0 60947 4500.00000 0 5963571.090 20338990.466 14288182.036 10 0 60947 5400.00000 0 4949926.759 18722727.772 16683512.637 10 0 60947 6300.00000 0 3641000.920 16977798.153 18756810.104 10 0 60947 7200.00000 0 2043784.990 15168746.967 20468023.041 10 0 60947 8100.00000 0 178032.678 13359295.515 21784035.785 10 0 60947 9000.00000 0 -1924300.611 11609755.953 22679300.911 10 0 60947 9900.00000 0 -4220128.337 9974603.815 23136332.970 10 0 60947 10800.00000 0 -6656771.800 8500307.315 23146054.316 10 0 60947 11700.00000 0 -9173906.966 7223502.433 22707986.057 10 0 60947 12600.00000 0 -11705841.811 6169589.177 21830279.440 10 0 60947 13500.00000 0 -14184032.955 5351807.634 20529585.419 10 0 60947 14400.00000 0 -16539739.969 4770833.180 18830762.735 10 0 60947 15300.00000 0 -18706709.087 4414909.246 16766427.608 10 0 60947 16200.00000 0 -20623775.836 4260513.911 14376351.064 10 0 60947 17100.00000 0 -22237278.267 4273534.320 11706712.910 10 0 60947 18000.00000 0 -23503179.174 4410901.359 8809224.608 10 0 60947 18900.00000 0 -24388806.808 4622617.043 5740136.290 10 0 60947 19800.00000 0 -24874138.872 4854089.679 2559146.205 10 0 60947 20700.00000 0 -24952573.212 5048677.833 -671766.362 10 0 60947 21600.00000 0 -24631150.279 5150334.205 -3889561.363 10 0 60947 22500.00000 0 -23930215.805 5106235.367 -7031386.275 10 0 60947 23400.00000 0 -22882536.390 4869283.069 -10035826.021 10 0 60947 24300.00000 0 -21531904.633 4400367.909 -12844127.702 10 0 60947 25200.00000 0 -19931292.900 3670296.022 -15401373.657 10 0 60947 26100.00000 0 -18140634.674 2661294.061 -17657577.387 10 0 60947 27000.00000 0 -16224328.823 1368026.070 -19568678.754 10 0 60947 27900.00000 0 -14248574.034 -201922.730 -21097417.312 10 0 60947 28800.00000 0 -12278647.912 -2028116.874 -22214065.607 10 0 60947 29700.00000 0 -10376247.125 -4077893.692 -22897007.739 10 0 60947 30600.00000 0 -8597001.746 -6307511.922 -23133152.120 10 0 60947 31500.00000 0 -6988268.820 -8663776.708 -22918171.246 10 0 60947 32400.00000 0 -5587297.389 -11086071.571 -22256565.132 10 0 60947 33300.00000 0 -4419840.658 -13508710.865 -21161548.876 10 0 60947 34200.00000 0 -3499271.317 -15863513.042 -19654768.453 10 0 60947 35100.00000 0 -2826234.238 -18082486.247 -17765852.257 10 0 60947 36000.00000 0 -2388847.665 -20100513.746 -15531809.049 10 0 60947 36900.00000 0 -2163440.857 -21857927.259 -12996285.808 10 0 60947 37800.00000 0 -2115793.673 -23302861.726 -10208701.424 10 0 60947 38700.00000 0 -2202822.768 -24393294.798 -7223274.284 10 0 60947 39600.00000 0 -2374640.916 -25098687.962 -4097963.456 10 0 60947 40500.00000 0 -2576900.926 -25401163.254 -893344.482 10 0 60947 41400.00000 0 -2753324.460 -25296169.047 2328558.490 10 0 60947 42300.00000 0 -2848309.037 -24792609.605 5505461.999 10 0 60947 43200.00000 0 -2809504.003 -23912435.229 8576011.855 10 0 60947 44100.00000 0 -2590248.086 -22689711.741 11480949.345 10 0 60947 45000.00000 0 -2151767.342 -21169209.171 14164234.075 10 0 60947 45900.00000 0 -1465042.557 -19404568.648 16574103.663 10 0 60947 46800.00000 0 -512268.794 -17456123.325 18664051.829 10 0 60947 47700.00000 0 712153.467 -15388462.736 20393707.970 10 0 60947 48600.00000 0 2201137.202 -13267840.052 21729603.090 10 0 60947 49500.00000 0 3934958.819 -11159527.757 22645808.788 10 0 60947 50400.00000 0 5881838.945 -9125229.320 23124437.998 10 0 60947 51300.00000 0 7999032.426 -7220652.181 23155998.215 10 0 60947 52200.00000 0 10234385.345 -5493341.110 22739590.125 10 0 60947 53100.00000 0 12528297.766 -3980860.805 21882946.846 10 0 60947 54000.00000 0 14816014.058 -2709402.894 20602311.393 10 0 60947 54900.00000 0 17030148.737 -1692875.595 18922152.571 10 0 60947 55800.00000 0 19103345.192 -932515.029 16874722.253 10 0 60947 56700.00000 0 20970958.209 -417035.863 14499459.909 10 0 60947 57600.00000 0 22573649.033 -123316.742 11842253.289 10 0 60947 58500.00000 0 23859784.086 -17593.516 8954567.310 10 0 60947 59400.00000 0 24787535.547 -57111.501 5892456.289 10 0 60947 60300.00000 0 25326593.543 -192168.023 2715477.650 10 0 60947 61200.00000 0 25459415.324 -368459.110 -514471.967 10 0 60947 62100.00000 0 25181956.052 -529630.296 -3734374.960 10 0 60947 63000.00000 0 24503847.774 -619921.891 -6881340.294 10 0 60947 63900.00000 0 23448016.867 -586794.162 -9893853.949 10 0 60947 64800.00000 0 22049754.741 -383418.182 -12713005.508 10 0 60947 65700.00000 0 20355280.438 29076.535 -15283664.350 10 0 60947 66600.00000 0 18419856.183 679696.054 -17555579.915 10 0 60947 67500.00000 0 16305536.464 1586101.287 -19484382.358 10 0 60947 68400.00000 0 14078647.180 2753617.473 -21032462.302 10 0 60947 69300.00000 0 11807102.958 4174777.220 -22169711.342 10 0 60947 70200.00000 0 9557677.349 5829417.141 -22874108.430 10 0 60947 71100.00000 0 7393342.082 7685323.960 -23132140.889 10 0 60947 72000.00000 0 5370787.954 9699402.146 -22939052.664 10 0 60947 72900.00000 0 3538231.330 11819312.822 -22298916.309 10 0 60947 73800.00000 0 1933597.255 13985513.759 -21224528.978 10 0 60947 74700.00000 0 583153.495 16133613.434 -19737136.366 10 0 60947 75600.00000 0 -499349.984 18196939.385 -17865991.971 10 0 60947 76500.00000 0 -1313003.310 20109212.566 -15647762.181 10 0 60947 77400.00000 0 -1869510.999 21807215.562 -13125790.555 10 0 60947 78300.00000 0 -2192431.456 23233343.503 -10349237.158 10 0 60947 79200.00000 0 -2315917.271 24337932.042 -7372110.841 10 0 60947 80100.00000 0 -2283012.331 25081266.670 -4252214.191 10 0 60947 81000.00000 0 -2143579.841 25435191.397 -1050022.009 10 0 60947 81900.00000 0 -1951950.082 25384251.875 2172484.909 10 0 60947 82800.00000 0 -1764387.695 24926327.474 5353008.492 10 0 60947 83700.00000 0 -1636485.084 24072728.066 8430122.499 10 0 60947 84600.00000 0 -1620590.907 22847753.153 11344440.263 10 0 60947 85500.00000 0 -1763380.644 21287732.840 14039740.093 10 0 60948 0.00000 0 -2103669.880 19439591.193 16464028.259 10 0 60948 900.00000 0 -2670560.999 17358990.338 18570522.298 10 0 60948 1800.00000 0 -3481999.525 15108133.921 20318534.439 10 0 60948 2700.00000 0 -4543800.743 12753316.101 21674244.286 10 0 60948 3600.00000 0 -5849187.291 10362318.024 22611344.049 10 0 60948 4500.00000 0 -7378858.394 8001756.391 23111546.231 10 0 60948 5400.00000 0 -9101589.870 5734491.832 23164944.208 10 0 60948 6300.00000 0 -10975342.675 3617202.361 22770218.511 10 0 60948 7200.00000 0 -12948837.029 1698221.028 21934683.871 10 0 60948 8100.00000 0 -14963530.024 15726.521 20674174.552 10 0 60948 9000.00000 0 -16955917.641 -1403638.276 19012768.052 10 0 60948 9900.00000 0 -18860068.094 -2545661.744 16982349.973 10 0 60948 10800.00000 0 -20610282.890 -3408934.529 14622025.807 10 0 60948 11700.00000 0 -22143775.662 -4004679.051 11977388.384 10 0 60948 12600.00000 0 -23403256.712 -4356042.957 9099652.870 10 0 60948 13500.00000 0 -24339314.051 -4496884.626 6044674.317 10 0 60948 14400.00000 0 -24912489.059 -4470100.701 2871865.746 10 0 60948 15300.00000 0 -25094956.926 -4325565.698 -356962.472 10 0 60948 16200.00000 0 -24871738.152 -4117771.061 -3578818.759 10 0 60948 17100.00000 0 -24241387.064 -3903264.771 -6730777.034 10 0 60948 18000.00000 0 -23216125.620 -3738001.955 -9751227.647 10 0 60948 18900.00000 0 -21821414.812 -3674721.461 -12581105.753 10 0 60948 19800.00000 0 -20094980.483 -3760462.658 -15165070.570 10 0 60948 20700.00000 0 -18085334.343 -4034330.896 -17452609.920 10 0 60948 21600.00000 0 -15849853.018 -4525609.245 -19399046.248 10 0 60948 22500.00000 0 -13452497.268 -5252298.912 -20966422.698 10 0 60948 23400.00000 0 -10961268.999 -6220151.882 -22124250.779 10 0 60948 24300.00000 0 -8445514.752 -7422237.595 -22850104.535 10 0 60948 25200.00000 0 -5973190.443 -8839062.153 -23130049.820 10 0 60948 26100.00000 0 -3608203.235 -10439234.444 -22958901.089 10 0 60948 27000.00000 0 -1407942.291 -12180650.011 -22340302.002 10 0 60948 27900.00000 0 578898.673 -14012141.384 -21286629.937 10 0 60948 28800.00000 0 2314117.290 -15875523.931 -19818728.167 10 0 60948 29700.00000 0 3771344.013 -17707949.826 -17965472.928 10 0 60948 30600.00000 0 4936876.090 -19444470.225 -15763185.712 10 0 60948 31500.00000 0 5809972.638 -21020697.511 -13254904.058 10 0 60948 32400.00000 0 6402602.333 -22375455.935 -10489526.553 10 0 60948 33300.00000 0 6738658.133 -23453310.134 -7520849.889 10 0 60948 34200.00000 0 6852675.495 -24206866.721 -4406517.579 10 0 60948 35100.00000 0 6788110.921 -24598754.190 -1206901.180 10 0 60948 36000.00000 0 6595255.430 -24603200.202 2016064.255 10 0 60948 36900.00000 0 6328872.076 -24207142.351 5200068.328 10 0 60948 37800.00000 0 6045657.399 -23410827.942 8283614.877 10 0 60948 38700.00000 0 5801633.298 -22227879.418 11207191.266 10 0 60948 39600.00000 0 5649578.057 -20684823.854 13914396.321 10 0 60948 40500.00000 0 5636603.139 -18820106.668 16353006.998 10 0 60948 41400.00000 0 5801975.998 -16682630.344 18475965.183 10 0 60948 42300.00000 0 6175278.915 -14329877.947 20242267.569 10 0 60948 43200.00000 0 6774980.061 -11825697.692 21617743.278 10 0 60948 44100.00000 0 7607476.360 -9237838.207 22575705.764 10 0 60948 45000.00000 0 8666648.684 -6635334.152 23097467.461 10 0 60948 45900.00000 0 9933949.341 -4085847.832 23172707.736 10 0 60948 46800.00000 0 11379020.427 -1653074.429 22799686.820 10 0 60948 47700.00000 0 12960820.028 605683.651 21985300.695 10 0 60948 48600.00000 0 14629212.542 2641674.220 20744974.325 10 0 60948 49500.00000 0 16326960.067 4416495.693 19102393.162 10 0 60948 50400.00000 0 17992034.742 5903465.489 17089075.623 10 0 60948 51300.00000 0 19560157.923 7088498.714 14743792.120 10 0 60948 52200.00000 0 20967461.567 7970459.112 12111839.247 10 0 60948 53100.00000 0 22153160.955 8560965.983 9244180.865 10 0 60948 54000.00000 0 23062126.114 8883663.501 6196470.951 10 0 60948 54900.00000 0 23647242.400 8972981.736 3027976.038 10 0 60948 55800.00000 0 23871458.532 8872440.700 -199582.093 10 0 60948 56700.00000 0 23709432.853 8632568.860 -3423240.419 10 0 60948 57600.00000 0 23148705.221 8308524.785 -6580040.468 10 0 60948 58500.00000 0 22190341.993 7957524.158 -9608279.646 10 0 60948 59400.00000 0 20849024.269 7636183.385 -12448741.317 10 0 60948 60300.00000 0 19152573.735 7397895.170 -15045877.052 10 0 60948 61200.00000 0 17140935.054 7290350.297 -17348915.387 10 0 60948 62100.00000 0 14864657.532 7353313.561 -19312873.187 10 0 60948 63000.00000 0 12382940.610 7616750.629 -20899448.057 10 0 60948 63900.00000 0 9761326.690 8099387.047 -22077773.150 10 0 60948 64800.00000 0 7069139.771 8807761.509 -22825019.133 10 0 60948 65700.00000 0 4376778.970 9735813.758 -23126831.699 10 0 60948 66600.00000 0 1752981.719 10865024.059 -22977596.852 10 0 60948 67500.00000 0 -737828.042 12165097.256 -22380530.068 10 0 60948 68400.00000 0 -3037995.755 13595161.028 -21347589.281 10 0 60948 69300.00000 0 -5098794.369 15105426.105 -19899215.253 10 0 60948 70200.00000 0 -6882196.306 16639236.773 -18063906.422 10 0 60948 71100.00000 0 -8362187.789 18135423.925 -15877638.405 10 0 60948 72000.00000 0 -9525573.823 19530860.597 -13383141.319 10 0 60948 72900.00000 0 -10372243.865 20763112.071 -10629050.487 10 0 60948 73800.00000 0 -10914890.920 21773069.286 -7668948.311 10 0 60948 74700.00000 0 -11178199.574 22507455.651 -4560316.810 10 0 60948 75600.00000 0 -11197540.389 22921103.288 -1363421.636 10 0 60948 76500.00000 0 -11017228.170 22978904.842 1859850.761 10 0 60948 77400.00000 0 -10688419.208 22657360.893 5047180.647 10 0 60948 78300.00000 0 -10266736.905 21945660.020 8137005.019 10 0 60948 79200.00000 0 -9809725.745 20846247.998 11069688.388 10 0 60948 80100.00000 0 -9374240.005 19374863.522 13788653.184 10 0 60948 81000.00000 0 -9013875.717 17560039.654 16241449.847 10 0 60948 81900.00000 0 -8776552.133 15442091.583 18380747.922 10 0 60948 82800.00000 0 -8702342.569 13071632.037 20165231.015 10 0 60948 83700.00000 0 -8821644.150 10507674.357 21560380.194 10 0 60948 84600.00000 0 -9153762.220 7815399.756 22539132.290 10 0 60948 85500.00000 0 -9705968.464 5063678.657 23082401.448 10 0 60949 0.00000 0 -10473072.679 2322446.164 23179454.385 10 0 60949 900.00000 0 -11437528.019 -339963.939 22828131.935 10 0 60949 1800.00000 0 -12570066.477 -2859415.039 22034911.662 10 0 60949 2700.00000 0 -13830842.241 -5178392.657 20814809.026 10 0 60949 3600.00000 0 -15171037.254 -7248155.494 19191116.649 10 0 60949 4500.00000 0 -16534865.284 -9030525.070 17194984.400 10 0 60949 5400.00000 0 -17861893.268 -10499238.862 14864845.700 10 0 60949 6300.00000 0 -19089584.705 -11640809.483 12245698.488 10 0 60949 7200.00000 0 -20155959.474 -12454852.441 9388252.485 10 0 60949 8100.00000 0 -21002258.382 -12953867.002 6347957.411 10 0 60949 9000.00000 0 -21575499.334 -13162477.745 3183929.883 10 0 60949 9900.00000 0 -21830815.415 -13116167.405 -42200.500 10 0 60949 10800.00000 0 -21733473.519 -12859553.829 -3267502.939 10 0 60949 11700.00000 0 -21260485.158 -12444283.947 -6428990.257 10 0 60949 12600.00000 0 -20401738.060 -11926634.831 -9464870.547 10 0 60949 13500.00000 0 -19160597.758 -11364925.182 -12315778.884 10 0 60949 14400.00000 0 -17553951.211 -10816849.302 -14925962.485 10 0 60949 15300.00000 0 -15611688.916 -10336849.274 -17244393.590 10 0 60949 16200.00000 0 -13375646.483 -9973639.537 -19225786.060 10 0 60949 17100.00000 0 -10898050.259 -9767991.277 -20831494.016 10 0 60949 18000.00000 0 -8239533.143 -9750872.515 -22030273.716 10 0 60949 18900.00000 0 -5466805.210 -9942023.898 -22798893.256 10 0 60949 19800.00000 0 -2650078.326 -10349030.942 -23122578.309 10 0 60949 20700.00000 0 139645.919 -10966931.559 -22995285.939 10 0 60949 21600.00000 0 2833310.421 -11778374.389 -22419802.412 10 0 60949 22500.00000 0 5366444.210 -12754319.594 -21407664.718 10 0 60949 23400.00000 0 7681601.440 -13855250.537 -19978909.244 10 0 60949 24300.00000 0 9730497.125 -15032843.198 -18161654.469 10 0 60949 25200.00000 0 11475752.428 -16232021.026 -15991527.743 10 0 60949 26100.00000 0 12892179.426 -17393307.042 -13510949.169 10 0 60949 27000.00000 0 13967555.008 -18455373.109 -10768288.063 10 0 60949 27900.00000 0 14702855.258 -19357678.585 -7816909.663 10 0 60949 28800.00000 0 15111944.264 -20043087.502 -4714131.537 10 0 60949 29700.00000 0 15220733.952 -20460355.013 -1520110.438 10 0 60949 30600.00000 0 15065853.219 -20566379.877 1703318.753 10 0 60949 31500.00000 0 14692884.588 -20328129.955 4893829.830 10 0 60949 32400.00000 0 14154243.924 -19724161.703 7989795.659 10 0 60949 33300.00000 0 13506792.897 -18745671.567 10931460.362 10 0 60949 34200.00000 0 12809284.192 -17397036.564 13662072.172 10 0 60949 35100.00000 0 12119745.802 -15695822.229 16128956.893 10 0 60949 36000.00000 0 11492912.629 -13672257.646 18284513.273 10 0 60949 36900.00000 0 10977811.392 -11368198.742 20087113.024 10 0 60949 37800.00000 0 10615598.283 -8835621.487 21501890.007 10 0 60949 38700.00000 0 10437738.508 -6134705.400 22501404.928 10 0 60949 39600.00000 0 10464603.022 -3331584.166 23066173.810 10 0 60949 40500.00000 0 10704541.013 -495853.540 23185050.564 10 0 60949 41400.00000 0 11153467.629 2302063.330 22855456.170 10 0 60949 42300.00000 0 11794985.677 4993586.870 22083449.169 10 0 60949 43200.00000 0 12601038.450 7514580.103 20883634.632 10 0 60949 44100.00000 0 13533069.052 9807769.644 19278911.283 10 0 60949 45000.00000 0 14543640.586 11824889.023 17300059.203 10 0 60949 45900.00000 0 15578452.043 13528455.242 14985173.408 10 0 60949 46800.00000 0 16578667.620 14893103.781 12378951.617 10 0 60949 47700.00000 0 17483463.105 15906424.894 9531847.654 10 0 60949 48600.00000 0 18232682.765 16569264.440 6499105.048 10 0 60949 49500.00000 0 18769494.329 16895474.746 3339688.379 10 0 60949 50400.00000 0 19042928.536 16911124.356 115132.786 10 0 60949 51300.00000 0 19010193.607 16653198.795 -3111665.551 10 0 60949 52200.00000 0 18638663.792 16167846.782 -6277693.193 10 0 60949 53100.00000 0 17907454.587 15508246.371 -9321071.350 10 0 60949 54000.00000 0 16808514.674 14732182.550 -12182289.143 10 0 60949 54900.00000 0 15347185.502 13899440.789 -14805391.635 10 0 60949 55800.00000 0 13542202.530 13069129.332 -17139096.787 10 0 60949 56700.00000 0 11425136.596 12297046.333 -19137817.299 10 0 60949 57600.00000 0 9039298.289 11633205.812 -20762565.476 10 0 60949 58500.00000 0 6438151.651 11119629.347 -21981722.185 10 0 60949 59400.00000 0 3683304.698 10788498.360 -22771654.297 10 0 60949 60300.00000 0 842162.325 10660745.840 -23117168.634 10 0 60949 61200.00000 0 -2014658.651 10745146.777 -23011794.273 10 0 60949 62100.00000 0 -4816042.908 11037944.730 -22457888.935 10 0 60949 63000.00000 0 -7493104.308 11523028.542 -21466568.998 10 0 60949 63900.00000 0 -9981813.728 12172649.567 -20057466.418 10 0 60949 64800.00000 0 -12225417.962 12948646.714 -18258319.250 10 0 60949 65700.00000 0 -14176550.221 13804125.233 -16104405.721 10 0 60949 66600.00000 0 -15798946.290 14685516.317 -13637834.704 10 0 60949 67500.00000 0 -17068697.650 15534929.006 -10906707.978 10 0 60949 68400.00000 0 -17974992.514 16292694.202 -7964171.827 10 0 60949 69300.00000 0 -18520317.429 16899993.180 -4867377.362 10 0 60949 70200.00000 0 -18720114.518 17301460.165 -1676370.247 10 0 60949 71100.00000 0 -18601911.979 17447650.240 1547068.563 10 0 60949 72000.00000 0 -18203966.955 17297270.091 4740608.909 10 0 60949 72900.00000 0 -17573479.600 16819079.372 7842562.180 10 0 60949 73800.00000 0 -16764454.345 15993384.452 10793054.903 10 0 60949 74700.00000 0 -15835298.239 14813063.277 13535163.990 10 0 60949 75600.00000 0 -14846256.462 13284079.374 16015993.527 10 0 60949 76500.00000 0 -13856791.190 11425463.805 18187674.361 10 0 60949 77400.00000 0 -12923011.885 9268765.365 20008269.100 10 0 60949 78300.00000 0 -12095262.654 6856990.671 21442567.011 10 0 60949 79200.00000 0 -11415965.811 4243076.166 22462755.038 10 0 60949 80100.00000 0 -10917810.363 1487952.851 23048953.115 10 0 60949 81000.00000 0 -10622360.323 -1341719.107 23189604.016 10 0 60949 81900.00000 0 -10539140.926 -4176055.292 22881710.104 10 0 60949 82800.00000 0 -10665241.694 -6944590.826 22130911.607 10 0 60949 83700.00000 0 -10985454.475 -9578956.314 20951403.434 10 0 60949 84600.00000 0 -11472942.796 -12015477.121 19365690.112 10 0 60949 85500.00000 0 -12090417.052 -14197589.442 17404181.101 10 0 60950 0.00000 0 -12791768.765 -16077973.009 15104631.885 10 0 60950 900.00000 0 -13524098.078 -17620312.167 12511437.716 10 0 60950 1800.00000 0 -14230050.047 -18800608.140 9674794.460 10 0 60950 2700.00000 0 -14850363.621 -19607989.231 6649736.833 10 0 60950 3600.00000 0 -15326524.890 -20044980.365 3495074.464 10 0 60950 4500.00000 0 -15603411.910 -20127219.755 272244.873 10 0 60950 5400.00000 0 -15631817.282 -19882632.797 -2955893.714 10 0 60950 6300.00000 0 -15370739.010 -19350097.027 -6126305.069 10 0 60950 7200.00000 0 -14789339.435 -18577654.278 -9177027.065 10 0 60950 8100.00000 0 -13868485.951 -17620346.246 -12048406.435 10 0 60950 9000.00000 0 -12601805.031 -16537766.424 -14684289.566 10 0 60950 9900.00000 0 -10996202.268 -15391434.054 -17033143.458 10 0 60950 10800.00000 0 -9071824.390 -14242103.618 -19049082.663 10 0 60950 11700.00000 0 -6861463.599 -13147126.170 -20692780.272 10 0 60950 12600.00000 0 -4409428.980 -12157976.302 -21932243.855 10 0 60950 13500.00000 0 -1769932.804 -11318050.943 -22743440.558 10 0 60950 14400.00000 0 994939.625 -10660833.870 -23110759.246 10 0 60950 15300.00000 0 3817590.149 -10208503.453 -23027301.299 10 0 60950 16200.00000 0 6627497.892 -9971041.496 -22494995.633 10 0 60950 17100.00000 0 9353930.013 -9945879.102 -21524537.278 10 0 60950 18000.00000 0 11928659.184 -10118092.171 -20135152.597 10 0 60950 18900.00000 0 14288574.454 -10461135.592 -18354197.700 10 0 60950 19800.00000 0 16378077.355 -10938082.324 -16216599.830 10 0 60950 20700.00000 0 18151164.831 -11503312.435 -13764154.439 10 0 60950 21600.00000 0 19573114.376 -12104578.551 -11044693.260 10 0 60950 22500.00000 0 20621703.929 -12685358.874 -8111140.818 10 0 60950 23400.00000 0 21287918.777 -13187397.463 -5020478.695 10 0 60950 24300.00000 0 21576119.324 -13553324.368 -1832638.196 10 0 60950 25200.00000 0 21503665.972 -13729245.532 1390657.021 10 0 60950 26100.00000 0 21100019.625 -13667194.283 4587076.213 10 0 60950 27000.00000 0 20405357.760 -13327342.594 7694872.551 10 0 60950 27900.00000 0 19468765.451 -12679880.608 10654058.000 10 0 60950 28800.00000 0 18346077.722 -11706486.956 13407540.880 10 0 60950 29700.00000 0 17097463.301 -10401329.313 15902205.939 10 0 60950 30600.00000 0 15784849.875 -8771553.863 18089918.100 10 0 60950 31500.00000 0 14469296.919 -6837243.084 19928432.456 10 0 60950 32400.00000 0 13208423.986 -4630842.646 21382194.867 10 0 60950 33300.00000 0 12053999.800 -2196079.519 22423019.317 10 0 60950 34200.00000 0 11049791.012 413586.216 23030630.084 10 0 60950 35100.00000 0 10229758.982 3136914.611 23193058.867 10 0 60950 36000.00000 0 9616679.108 5907166.514 22906889.137 10 0 60950 36900.00000 0 9221240.359 8654620.439 22177342.202 10 0 60950 37800.00000 0 9041663.410 11309224.451 21018201.908 10 0 60950 38700.00000 0 9063854.855 13803275.638 19451577.398 10 0 60950 39600.00000 0 9262093.073 16074017.726 17507506.076 10 0 60950 40500.00000 0 9600219.301 18066049.760 15223401.802 10 0 60950 41400.00000 0 10033286.189 19733445.502 12643356.324 10 0 60950 42300.00000 0 10509596.427 21041494.144 9817305.107 10 0 60950 43200.00000 0 10973046.882 21967987.947 6800071.810 10 0 60950 44100.00000 0 11365679.763 22504000.715 3650308.697 10 0 60950 45000.00000 0 11630332.517 22654122.188 429353.145 10 0 60950 45900.00000 0 11713272.850 22436136.434 -2799977.182 10 0 60950 46800.00000 0 11566704.964 21880156.207 -5974625.866 10 0 60950 47700.00000 0 11151037.820 21027248.931 -9032549.967 10 0 60950 48600.00000 0 10436816.035 19927612.332 -11913956.207 10 0 60950 49500.00000 0 9406228.204 18638377.593 -14562494.494 10 0 60950 50400.00000 0 8054125.787 17221134.522 -16926382.833 10 0 60950 51300.00000 0 6388506.949 15739285.369 -18959439.378 10 0 60950 52200.00000 0 4430443.166 14255341.485 -20621999.556 10 0 60950 53100.00000 0 2213450.803 12828279.220 -21881698.986 10 0 60950 54000.00000 0 -217666.012 11511068.514 -22714106.255 10 0 60950 54900.00000 0 -2808451.995 10348479.605 -23103193.227 10 0 60950 55800.00000 0 -5496847.057 9375260.651 -23041634.307 10 0 60950 56700.00000 0 -8215555.377 8614762.456 -22530930.034 10 0 60950 57600.00000 0 -10894636.838 8078066.699 -21581354.178 10 0 60950 58500.00000 0 -13464211.544 7763652.132 -20211727.229 10 0 60950 59400.00000 0 -15857164.035 7657609.937 -18449022.692 10 0 60950 60300.00000 0 -18011734.548 7734396.032 -16327815.806 10 0 60950 61200.00000 0 -19873890.120 7958085.453 -13889587.288 10 0 60950 62100.00000 0 -21399378.249 8284073.049 -11181897.271 10 0 60950 63000.00000 0 -22555379.697 8661146.345 -8257446.774 10 0 60950 63900.00000 0 -23321694.216 9033841.410 -5173045.970 10 0 60950 64800.00000 0 -23691412.688 9344981.357 -1988509.802 10 0 60950 65700.00000 0 -23671050.706 9538290.213 1234497.501 10 0 60950 66600.00000 0 -23280140.844 9560972.391 4433646.877 10 0 60950 67500.00000 0 -22550303.092 9366150.134 7547135.683 10 0 60950 68400.00000 0 -21523834.022 8915057.663 10514863.875 10 0 60950 69300.00000 0 -20251874.690 8178901.230 13279573.853 10 0 60950 70200.00000 0 -18792233.908 7140308.239 15787933.763 10 0 60950 71100.00000 0 -17206957.148 5794305.565 17991545.339 10 0 60950 72000.00000 0 -15559741.191 4148786.315 19847858.802 10 0 60950 72900.00000 0 -13913300.507 2224445.026 21320979.075 10 0 60950 73800.00000 0 -12326793.022 54182.559 22382349.398 10 0 60950 74700.00000 0 -10853410.458 -2317996.683 23011300.287 10 0 60950 75600.00000 0 -9538231.807 -4838552.237 23195453.896 10 0 60950 76500.00000 0 -8416428.018 -7446377.991 22930975.927 10 0 60950 77400.00000 0 -7511892.110 -10075097.209 22222669.480 10 0 60950 78300.00000 0 -6836351.948 -12655590.307 21083907.607 10 0 60950 79200.00000 0 -6389003.569 -15118653.420 19536403.901 10 0 60950 80100.00000 0 -6156681.895 -17397679.524 17609823.106 10 0 60950 81000.00000 0 -6114563.597 -19431252.007 15341236.638 10 0 60950 81900.00000 0 -6227374.678 -21165543.017 12774430.882 10 0 60950 82800.00000 0 -6451053.988 -22556415.893 9959079.273 10 0 60950 83700.00000 0 -6734804.068 -23571142.340 6949792.269 10 0 60950 84600.00000 0 -7023443.624 -24189660.305 3805062.355 10 0 60950 85500.00000 0 -7259962.126 -24405317.321 586124.096 99